Regional Weather Roundup
Issued by NWS Bismarck, ND

Home | Current Version | Previous Version | Text Only | Print | Product List | Glossary On
Versions: 1 2 3 4 5 6 7 8 9 10 11 12 13 14 15 16 17 18 19 20 21 22 23 24 25 26 27 28 29 30 31 32 33 34 35 36 37 38 39 40 41 42 43 44 45 46 47 48 49 50
000
ASUS43 KBIS 211120
RWRBIS

NWR BROADCAST TEXT
NATIONAL WEATHER SERVICE BISMARCK ND
600 AM CDT THU AUG 21 2014

NOTE: "FAIR" INDICATES FEW OR NO CLOUDS BELOW 12,000 FEET WITH NO
SIGNIFICANT WEATHER AND/OR OBSTRUCTIONS TO VISIBILITY.


CITY           SKY/WX    TMP DP  RH WIND       PRES   REMARKS
WILLISTON      FOG       54  54 100 CALM      29.85R VSB 1/2
MINOT          CLOUDY    64  63  96 NW6       29.79R
MINOT AFB      CLOUDY    64  64 100 N5        29.78R
BISMARCK       PTCLDY    65  64  97 NW8       29.77R
DICKINSON      CLEAR     55  53  93 W6        29.83R
GARRISON         N/A     64  64 100 NW13G18   29.78R
HETTINGER ARPT PTCLDY    56  53  90 N3        29.86R
JAMESTOWN      CLOUDY    69  67  93 E6        29.74R
BEACH            N/A     54  54 100 NE3       29.89R
CARRINGTON     PTSUNNY   66  66 100 SE7       29.76R FOG
CROSBY         FAIR      57  57 100 NW9       29.85R
HARVEY         CLOUDY    66  66 100 CALM      29.76R FOG
HAZEN          CLOUDY    64  63  94 W6        29.81R
LINTON         CLOUDY    66  66 100 W7        29.76R FOG
MANDAN         FAIR      63  63 100 NW10      29.79R
RUGBY          PTSUNNY   66  66 100 E12       29.75R
STANLEY        FOG       61  61 100 NW7       29.82R VSB 1/4
TIOGA          CLOUDY    63  63 100 NW9       29.86R FOG
WATFORD CITY   FOG       61  61 100 NW6       29.83R VSB 1/4
$$

CITY           SKY/WX    TMP DP  RH WIND       PRES   REMARKS
GRAND FORKS    CLOUDY    69  65  86 SE7       29.74R
GRAND FORKS AF CLOUDY    68  68 100 E1        29.77R
DEVILS LAKE    CLOUDY    68  63  83 E7        29.75R
FARGO          CLOUDY    70  68  93 N3        29.73R
CANDO          CLOUDY    66  66 100 NE10      29.76S
CAVALIER       PTSUNNY   66  64  94 NE3       29.78R
GRAFTON        FAIR      64  64 100 SE7       29.76S
GWINNER        CLOUDY    70  70 100 SE9       29.74R
LANGDON        CLOUDY    66  66 100 N6        29.80R
ROLLA          CLOUDY    63  63 100 NE13      29.79S
WALHALLA         N/A     66  66 100 NE3       29.79R
$$

CITY           SKY/WX    TMP DP  RH WIND       PRES   REMARKS
ABERDEEN       CLOUDY    65  65 100 CALM      29.72R
MOBRIDGE       CLOUDY    64  64 100 NW10      29.74R
BUFFALO          N/A     58  54  86 VRB5      29.84R
RAPID CITY     MOCLDY    64  60  87 NW13      29.90S
GLASGOW        MOCLDY    63  58  83 NE12      29.88S
SIDNEY         CLEAR     61  59  94 NW8       29.87R
WOLF POINT     MOCLDY    60  55  83 NW6       29.88R
GLENDIVE       CLEAR     59  55  88 NW9       29.89R
MILES CITY     CLOUDY    61  52  72 NW9       29.91R
BAKER          CLEAR     53  51  93 S3        29.90R
$$

CITY           SKY/WX    TMP DP  RH WIND       PRES   REMARKS
BILLINGS       CLOUDY    59  55  87 W5        29.98R
GREAT FALLS    CLOUDY    54  53  97 NW6       30.03R
REGINA         CLOUDY    61  59  94 N12       29.89R
ESTEVAN        FOG       59  59 100 W8        29.83R VSB 1/4
$$




USA.gov is the U.S. government's official web portal to all federal, state and local government web resources and services.